TimeCST,TemperatureF,Dew PointF,Humidity,Sea Level PressureIn,VisibilityMPH,Wind Direction,Wind SpeedMPH,Gust SpeedMPH,PrecipitationIn,Events,Conditions,WindDirDegrees,DateUTC
12:15 AM,53.6,39.2,58,29.77,10.0,Calm,Calm,-,N/A,,Overcast,0,2013-03-05 06:15:00
1:35 AM,55.4,44.6,67,29.77,10.0,West,3.5,-,0.05,,Overcast,280,2013-03-05 07:35:00
1:55 AM,53.6,44.6,72,29.77,10.0,Calm,Calm,-,0.06,,Overcast,0,2013-03-05 07:55:00
2:15 AM,53.6,44.6,72,29.77,10.0,Calm,Calm,-,0.01,,Overcast,0,2013-03-05 08:15:00
2:35 AM,53.6,44.6,72,29.77,10.0,South,3.5,-,0.01,,Overcast,180,2013-03-05 08:35:00
2:55 AM,53.6,44.6,72,29.76,10.0,Calm,Calm,-,0.01,,Overcast,0,2013-03-05 08:55:00
3:15 AM,51.8,44.6,76,29.77,10.0,Calm,Calm,-,N/A,,Overcast,0,2013-03-05 09:15:00
3:35 AM,51.8,44.6,76,29.77,10.0,Calm,Calm,-,N/A,,Overcast,0,2013-03-05 09:35:00
3:55 AM,51.8,44.6,76,29.77,10.0,Calm,Calm,-,N/A,,Overcast,0,2013-03-05 09:55:00
4:15 AM,51.8,44.6,76,29.77,10.0,NNW,3.5,-,N/A,,Overcast,330,2013-03-05 10:15:00
4:35 AM,51.8,44.6,76,29.78,10.0,Calm,Calm,-,N/A,,Overcast,0,2013-03-05 10:35:00
4:55 AM,51.8,44.6,76,29.78,10.0,Calm,Calm,-,N/A,,Overcast,0,2013-03-05 10:55:00
5:15 AM,53.6,44.6,72,29.78,10.0,NW,3.5,-,N/A,,Overcast,320,2013-03-05 11:15:00
5:35 AM,51.8,44.6,76,29.79,10.0,Calm,Calm,-,N/A,,Overcast,0,2013-03-05 11:35:00
5:55 AM,51.8,44.6,76,29.80,10.0,WNW,4.6,-,0.01,,Overcast,300,2013-03-05 11:55:00
6:15 AM,51.8,44.6,76,29.79,10.0,West,6.9,-,N/A,,Overcast,270,2013-03-05 12:15:00
6:35 AM,53.6,44.6,72,29.80,7.0,West,8.1,-,0.02,,Overcast,270,2013-03-05 12:35:00
7:35 AM,51.8,42.8,71,29.81,10.0,WNW,9.2,-,0.02,,Overcast,290,2013-03-05 13:35:00
7:55 AM,48.2,41.0,76,29.82,8.0,NW,10.4,-,0.04,,Overcast,310,2013-03-05 13:55:00
8:15 AM,48.2,39.2,71,29.81,9.0,NW,12.7,17.3,N/A,,Overcast,310,2013-03-05 14:15:00
8:35 AM,46.4,37.4,71,29.84,7.0,WNW,12.7,18.4,N/A,,Overcast,290,2013-03-05 14:35:00
8:55 AM,46.4,37.4,71,29.86,10.0,WNW,12.7,23.0,N/A,,Overcast,290,2013-03-05 14:55:00
9:15 AM,46.4,37.4,71,29.85,10.0,WNW,18.4,24.2,N/A,,Overcast,300,2013-03-05 15:15:00
9:35 AM,44.6,35.6,71,29.88,10.0,NW,21.9,31.1,N/A,,Overcast,310,2013-03-05 15:35:00
9:55 AM,42.8,32.0,66,29.89,10.0,WNW,17.3,24.2,N/A,,Overcast,300,2013-03-05 15:55:00
10:15 AM,41.0,30.2,65,29.91,10.0,WNW,17.3,23.0,N/A,,Overcast,300,2013-03-05 16:15:00
10:35 AM,39.2,30.2,70,29.94,6.0,WNW,16.1,26.5,0.02,,Overcast,300,2013-03-05 16:35:00
10:55 AM,39.2,28.4,65,29.96,3.0,WNW,16.1,21.9,0.06,,Overcast,300,2013-03-05 16:55:00
11:15 AM,37.4,28.4,70,29.97,8.0,NW,12.7,25.3,0.01,,Overcast,310,2013-03-05 17:15:00
11:35 AM,37.4,28.4,70,29.98,5.0,WNW,15.0,20.7,0.01,,Overcast,300,2013-03-05 17:35:00
11:55 AM,37.4,26.6,65,30.00,10.0,WNW,16.1,27.6,0.01,,Overcast,300,2013-03-05 17:55:00
12:15 PM,37.4,28.4,70,30.00,10.0,NW,15.0,21.9,N/A,,Overcast,310,2013-03-05 18:15:00
12:35 PM,39.2,28.4,65,29.99,10.0,NW,15.0,20.7,N/A,,Overcast,310,2013-03-05 18:35:00
12:55 PM,39.2,28.4,65,29.99,10.0,WNW,15.0,19.6,N/A,,Overcast,300,2013-03-05 18:55:00
1:15 PM,41.0,28.4,61,29.99,10.0,WNW,17.3,25.3,N/A,,Overcast,300,2013-03-05 19:15:00
1:35 PM,41.0,28.4,61,29.99,10.0,WNW,18.4,26.5,N/A,,Overcast,300,2013-03-05 19:35:00
1:55 PM,42.8,28.4,57,30.00,10.0,WNW,17.3,28.8,N/A,,Overcast,290,2013-03-05 19:55:00
2:15 PM,42.8,26.6,53,30.00,10.0,NW,20.7,32.2,N/A,,Mostly Cloudy,310,2013-03-05 20:15:00
2:35 PM,42.8,26.6,53,30.01,10.0,WNW,15.0,27.6,N/A,,Overcast,300,2013-03-05 20:35:00
3:15 PM,44.6,26.6,49,30.02,10.0,NW,17.3,23.0,N/A,,Overcast,310,2013-03-05 21:15:00
3:35 PM,42.8,26.6,53,30.03,10.0,WNW,13.8,20.7,N/A,,Overcast,300,2013-03-05 21:35:00
3:55 PM,44.6,24.8,46,30.03,10.0,WNW,15.0,26.5,N/A,,Overcast,290,2013-03-05 21:55:00
4:15 PM,44.6,24.8,46,30.04,10.0,NW,15.0,25.3,N/A,,Mostly Cloudy,310,2013-03-05 22:15:00
4:35 PM,44.6,24.8,46,30.05,10.0,WNW,17.3,25.3,N/A,,Partly Cloudy,300,2013-03-05 22:35:00
4:55 PM,44.6,23.0,43,30.05,10.0,NW,15.0,21.9,N/A,,Clear,310,2013-03-05 22:55:00
5:15 PM,42.8,23.0,46,30.06,10.0,WNW,10.4,19.6,N/A,,Partly Cloudy,300,2013-03-05 23:15:00
5:35 PM,42.8,21.2,42,30.06,10.0,WNW,12.7,19.6,N/A,,Partly Cloudy,300,2013-03-05 23:35:00
5:55 PM,42.8,21.2,42,30.07,10.0,WNW,12.7,24.2,N/A,,Clear,300,2013-03-05 23:55:00
6:15 PM,42.8,19.4,39,30.07,10.0,WNW,12.7,18.4,N/A,,Clear,300,2013-03-06 00:15:00
6:35 PM,41.0,19.4,42,30.08,10.0,WNW,11.5,17.3,N/A,,Clear,300,2013-03-06 00:35:00
6:55 PM,41.0,19.4,42,30.09,10.0,WNW,11.5,18.4,N/A,,Clear,300,2013-03-06 00:55:00
7:15 PM,41.0,21.2,45,30.10,10.0,NNW,12.7,19.6,N/A,,Mostly Cloudy,330,2013-03-06 01:15:00
7:35 PM,37.4,19.4,48,30.12,10.0,North,21.9,33.4,N/A,,Mostly Cloudy,350,2013-03-06 01:35:00
7:55 PM,35.6,17.6,48,30.12,10.0,NNW,16.1,27.6,N/A,,Clear,340,2013-03-06 01:55:00
8:15 PM,35.6,17.6,48,30.13,10.0,NNW,15.0,24.2,N/A,,Scattered Clouds,330,2013-03-06 02:15:00
8:35 PM,37.4,17.6,45,30.13,10.0,NW,15.0,24.2,N/A,,Overcast,320,2013-03-06 02:35:00
8:55 PM,37.4,17.6,45,30.14,10.0,NW,10.4,18.4,N/A,,Mostly Cloudy,310,2013-03-06 02:55:00
9:15 PM,37.4,17.6,45,30.15,10.0,NW,12.7,16.1,N/A,,Mostly Cloudy,310,2013-03-06 03:15:00
9:35 PM,37.4,17.6,45,30.16,10.0,WNW,13.8,18.4,N/A,,Overcast,300,2013-03-06 03:35:00
9:55 PM,35.6,17.6,48,30.16,10.0,WNW,13.8,23.0,N/A,,Mostly Cloudy,300,2013-03-06 03:55:00
10:15 PM,35.6,15.8,44,30.16,10.0,WNW,16.1,27.6,N/A,,Partly Cloudy,300,2013-03-06 04:15:00
10:35 PM,35.6,15.8,44,30.17,10.0,NW,13.8,20.7,N/A,,Clear,310,2013-03-06 04:35:00
10:55 PM,35.6,15.8,44,30.17,10.0,WNW,16.1,25.3,N/A,,Clear,300,2013-03-06 04:55:00
11:15 PM,35.6,15.8,44,30.17,10.0,WNW,17.3,21.9,N/A,,Mostly Cloudy,300,2013-03-06 05:15:00
11:35 PM,35.6,17.6,48,30.18,10.0,WNW,11.5,26.5,N/A,,Overcast,300,2013-03-06 05:35:00
11:55 PM,35.6,17.6,48,30.18,10.0,WNW,16.1,25.3,N/A,,Overcast,300,2013-03-06 05:55:00